TimeCDT,TemperatureF,Dew PointF,Humidity,Sea Level PressureIn,VisibilityMPH,Wind Direction,Wind SpeedMPH,Gust SpeedMPH,PrecipitationIn,Events,Conditions,WindDirDegrees,DateUTC
12:15 AM,60.4,59.0,95,29.90,5.0,East,6.9,-,N/A,,Overcast,80,2013-10-04 05:15:00
12:35 AM,60.4,59.0,95,29.89,5.0,ENE,4.6,-,N/A,,Overcast,70,2013-10-04 05:35:00
12:55 AM,60.3,58.6,94,29.90,5.0,ENE,4.6,-,N/A,,Overcast,60,2013-10-04 05:55:00
1:15 AM,60.1,58.3,94,29.90,5.0,NE,3.5,-,N/A,,Overcast,50,2013-10-04 06:15:00
1:35 AM,60.1,58.3,94,29.89,5.0,East,4.6,-,N/A,,Overcast,100,2013-10-04 06:35:00
1:55 AM,60.1,58.5,94,29.89,5.0,ENE,4.6,-,N/A,,Overcast,60,2013-10-04 06:55:00
2:15 AM,59.9,58.5,95,29.89,5.0,ENE,4.6,-,N/A,,Overcast,60,2013-10-04 07:15:00
2:35 AM,59.9,58.3,94,29.90,5.0,ENE,3.5,-,N/A,,Overcast,70,2013-10-04 07:35:00
2:55 AM,59.4,58.1,96,29.90,4.0,ENE,6.9,-,N/A,,Overcast,70,2013-10-04 07:55:00
3:15 AM,58.8,57.4,95,29.91,3.0,NE,5.8,-,N/A,,Overcast,50,2013-10-04 08:15:00
3:35 AM,58.1,57.0,96,29.91,3.0,NE,5.8,-,N/A,,Overcast,40,2013-10-04 08:35:00
3:55 AM,57.7,56.7,96,29.93,4.0,ENE,5.8,-,N/A,,Overcast,60,2013-10-04 08:55:00
4:15 AM,57.6,56.7,97,29.93,3.0,NE,4.6,-,N/A,,Overcast,50,2013-10-04 09:15:00
4:35 AM,57.4,56.5,97,29.93,4.0,NE,4.6,-,N/A,,Overcast,50,2013-10-04 09:35:00
4:55 AM,57.4,56.3,96,29.93,5.0,ENE,5.8,-,N/A,,Overcast,70,2013-10-04 09:55:00
5:15 AM,57.4,56.3,96,29.93,5.0,ENE,4.6,-,N/A,,Overcast,60,2013-10-04 10:15:00
5:35 AM,57.2,56.3,97,29.94,5.0,ENE,3.5,-,N/A,,Overcast,60,2013-10-04 10:35:00
5:55 AM,57.2,56.3,97,29.94,4.0,East,5.8,-,N/A,,Overcast,80,2013-10-04 10:55:00
6:15 AM,57.2,56.3,97,29.93,2.5,ENE,6.9,-,N/A,,Overcast,70,2013-10-04 11:15:00
6:35 AM,57.2,56.3,97,29.95,2.0,ESE,6.9,-,N/A,,Overcast,110,2013-10-04 11:35:00
6:55 AM,57.2,56.3,97,29.97,2.5,East,4.6,-,N/A,,Overcast,90,2013-10-04 11:55:00
7:35 AM,57.2,56.5,97,29.95,4.0,ENE,5.8,-,0.04,Rain,Rain,60,2013-10-04 12:35:00
7:55 AM,57.4,56.7,97,29.95,7.0,ENE,3.5,-,0.04,Rain,Rain,70,2013-10-04 12:55:00
8:15 AM,57.6,56.7,97,29.95,7.0,East,6.9,-,N/A,,Overcast,80,2013-10-04 13:15:00
8:35 AM,57.6,56.5,96,29.92,10.0,East,11.5,-,N/A,,Overcast,80,2013-10-04 13:35:00
8:55 AM,57.7,56.7,96,29.91,10.0,ENE,9.2,16.1,N/A,Rain,Light Rain,60,2013-10-04 13:55:00
9:15 AM,57.7,56.5,96,29.97,10.0,SSW,4.6,-,N/A,,Overcast,200,2013-10-04 14:15:00
9:35 AM,58.1,56.5,94,29.96,10.0,ENE,5.8,-,N/A,,Light Drizzle,60,2013-10-04 14:35:00
9:55 AM,58.1,56.8,96,29.95,10.0,East,9.2,-,N/A,Rain,Light Rain,80,2013-10-04 14:55:00
10:15 AM,58.1,56.7,95,29.95,10.0,ENE,5.8,-,N/A,,Overcast,70,2013-10-04 15:15:00
10:35 AM,58.5,57.0,95,29.94,10.0,ENE,8.1,-,0.01,,Overcast,70,2013-10-04 15:35:00
10:55 AM,59.2,57.2,93,29.96,10.0,ENE,6.9,-,0.01,,Overcast,70,2013-10-04 15:55:00
11:15 AM,59.2,57.2,93,29.97,10.0,East,6.9,-,N/A,,Overcast,80,2013-10-04 16:15:00
11:35 AM,59.2,57.4,94,29.98,10.0,East,8.1,-,N/A,,Overcast,90,2013-10-04 16:35:00
11:55 AM,59.2,57.4,94,29.99,10.0,East,6.9,-,N/A,,Overcast,100,2013-10-04 16:55:00
12:15 PM,59.7,57.9,94,29.99,10.0,East,5.8,-,N/A,,Overcast,90,2013-10-04 17:15:00
12:35 PM,59.9,58.1,94,30.00,10.0,ESE,8.1,-,N/A,,Overcast,110,2013-10-04 17:35:00
12:55 PM,60.1,58.1,93,29.99,10.0,East,6.9,-,N/A,,Overcast,80,2013-10-04 17:55:00
1:15 PM,59.9,58.1,94,29.99,10.0,East,5.8,-,N/A,,Overcast,80,2013-10-04 18:15:00
1:35 PM,60.6,58.3,92,29.98,10.0,East,9.2,-,N/A,,Overcast,90,2013-10-04 18:35:00
1:55 PM,61.2,58.5,91,29.96,10.0,East,9.2,-,N/A,,Overcast,80,2013-10-04 18:55:00
2:15 PM,62.1,59.0,90,29.94,10.0,ENE,9.2,-,N/A,,Overcast,70,2013-10-04 19:15:00
2:35 PM,61.2,58.5,91,29.95,10.0,East,9.2,-,N/A,,Overcast,90,2013-10-04 19:35:00
2:55 PM,60.8,58.1,91,29.95,7.0,East,9.2,-,N/A,,Overcast,80,2013-10-04 19:55:00
3:15 PM,60.4,58.3,93,29.95,5.0,East,11.5,-,N/A,,Overcast,90,2013-10-04 20:15:00
3:35 PM,60.4,58.3,93,29.96,7.0,East,10.4,-,N/A,,Overcast,100,2013-10-04 20:35:00
3:55 PM,60.6,58.3,92,29.95,7.0,East,9.2,-,N/A,,Overcast,80,2013-10-04 20:55:00
4:15 PM,60.3,58.1,93,29.97,10.0,East,5.8,-,N/A,,Overcast,80,2013-10-04 21:15:00
4:35 PM,60.1,58.1,93,29.95,10.0,ENE,11.5,-,N/A,,Overcast,60,2013-10-04 21:35:00
4:55 PM,59.9,57.7,93,29.95,10.0,ENE,11.5,16.1,N/A,,Overcast,70,2013-10-04 21:55:00
5:15 PM,59.4,57.4,93,29.96,10.0,East,10.4,16.1,N/A,,Overcast,80,2013-10-04 22:15:00
5:35 PM,59.2,57.4,94,29.96,10.0,East,9.2,-,N/A,,Overcast,80,2013-10-04 22:35:00
5:55 PM,59.0,57.2,94,29.95,5.0,ENE,9.2,-,N/A,,Overcast,70,2013-10-04 22:55:00
6:15 PM,58.6,57.2,95,29.94,5.0,East,10.4,-,N/A,,Overcast,80,2013-10-04 23:15:00
6:35 PM,58.5,57.2,96,29.93,5.0,East,12.7,-,N/A,,Overcast,90,2013-10-04 23:35:00
6:55 PM,58.6,57.4,96,29.97,7.0,ESE,8.1,17.3,N/A,,Overcast,120,2013-10-04 23:55:00
7:15 PM,58.5,57.2,96,29.95,4.0,East,13.8,19.6,N/A,,Overcast,80,2013-10-05 00:15:00
7:35 PM,58.3,57.2,96,29.94,3.0,East,12.7,20.7,N/A,,Overcast,90,2013-10-05 00:35:00
7:55 PM,58.5,57.4,96,29.96,3.0,East,10.4,-,N/A,,Overcast,100,2013-10-05 00:55:00
8:15 PM,58.5,57.6,97,29.96,3.0,East,9.2,-,N/A,,Overcast,80,2013-10-05 01:15:00
8:35 PM,58.5,57.6,97,29.96,4.0,East,5.8,-,N/A,Rain,Light Rain,90,2013-10-05 01:35:00
8:55 PM,58.6,57.7,97,29.95,4.0,East,10.4,17.3,N/A,Rain-Thunderstorm,Light Thunderstorms and Rain,80,2013-10-05 01:55:00
9:15 PM,58.6,57.7,97,29.96,5.0,East,9.2,16.1,0.01,Rain,Light Rain,80,2013-10-05 02:15:00
9:35 PM,58.6,57.7,97,29.97,5.0,ENE,8.1,-,0.02,Rain,Light Rain,70,2013-10-05 02:35:00
9:55 PM,58.5,57.6,97,29.95,5.0,East,12.7,16.1,0.03,Rain-Thunderstorm,Light Thunderstorms and Rain,80,2013-10-05 02:55:00
10:15 PM,58.5,57.4,96,29.94,7.0,East,12.7,18.4,N/A,Thunderstorm,Thunderstorm,90,2013-10-05 03:15:00
10:35 PM,58.1,57.2,97,29.95,5.0,East,11.5,18.4,N/A,Thunderstorm,Overcast,90,2013-10-05 03:35:00
10:55 PM,58.1,57.2,97,29.92,4.0,East,17.3,20.7,N/A,Rain-Thunderstorm,Light Thunderstorms and Rain,90,2013-10-05 03:55:00
11:15 PM,57.9,57.0,97,29.92,3.0,East,11.5,19.6,N/A,Thunderstorm,Overcast,100,2013-10-05 04:15:00
11:35 PM,58.1,57.2,97,29.97,4.0,WNW,12.7,19.6,N/A,Thunderstorm,Overcast,300,2013-10-05 04:35:00
11:55 PM,57.7,56.7,96,29.94,3.0,ENE,9.2,-,0.01,,Drizzle,70,2013-10-05 04:55:00